Orbital Elements at Epoch 2459000.5 (2020-May-31.0) TDB
Reference: JPL 14 (heliocentric ecliptic J2000)
Element | Value | Uncertainty (1-sigma) | Units |
e | .1959359611827288 | 4.3502e-08 | |
a | 2.340139658300869 | 1.2739e-08 | au |
q | 1.881622145049866 | 9.9385e-08 | au |
i | 2.410835061616945 | 5.6411e-06 | deg |
node | 156.4137490214771 | 0.00012492 | deg |
peri | 111.7993126640136 | 0.00012642 | deg |
M | 212.8401340272662 | 1.5896e-05 | deg |
tp | 2459535.000326332412 (2021-Nov-16.50032633) | 5.8571e-05 | TDB |
period | 1307.558390378803 3.58 | 1.0677e-05 2.923e-08 | d yr |
n | .2753223126775295 | 2.2482e-09 | deg/d |
Q | 2.798657171551872 | 1.5235e-08 | au |
|
| | Orbit Determination Parameters
Additional Information
|